Deming, NM

7:30 PM MDT on May 24, 2018 (GMT -0600)
Deming Municipal

Weather History for KDMN - April, 2013

Change the Weather History Date:

Tuesday, April 30, 2013

  Actual Average Record
Temperature  
Mean Temperature 72 °F 65 °F  
Max Temperature 90 °F 83 °F 92 °F (1949)
Min Temperature 55 °F 47 °F 29 °F (1951)
Cooling Degree Days 8    
Growing Degree Days 22 (Base 50)    
Moisture  
Dew Point 11 °F    
Average Humidity 10    
Maximum Humidity 18    
Minimum Humidity 4    
Precipitation  
Precipitation 0.00 in 0.01 in 0.10 in (1951)
Month to date precipitation 0.36  
Year to date precipitation 1.98  
Sea Level Pressure  
Sea Level Pressure 29.63 in    
Wind  
Wind Speed 11 mph (West)    
Max Wind Speed 21 mph    
Max Gust Speed 30 mph    
Visibility 10 miles    
Events      
T = Trace of Precipitation, MM = Missing Value Source: NWS Daily Summary

Daily Weather History Graph

Daily Weather History Graph

Search for Another Location

Airport or City:

Astronomy

Apr. 30, 2013 Rise Set
Actual Time 6:25 AM MDT 7:51 PM MDT
Civil Twilight 5:59 AM MDT 8:17 PM MDT
Nautical Twilight 5:28 AM MDT 8:48 PM MDT
Astronomical Twilight 4:55 AM MDT 9:21 PM MDT
Moon 12:13 AM MDT (4/30) 11:00 AM MDT (4/30)
Length of Visible Light 14h 18m
Length of Day
13h 26m
Waning Gibbous, 69% of the Moon is Illuminated
Apr 30
Waning Gibbous
May 2
Last Quarter
May 9
New
May 17
First Quarter
May 24
Full

Hourly Weather History & Observations

Time (MDT) Temp. Dew Point Humidity Pressure Visibility Wind Dir Wind Speed Gust Speed Precip Events Conditions
12:53 AM 63.0 °F 10.9 °F 13% 29.62 in 10.0 mi West 6.9 mph - N/A   Clear
1:53 AM 64.9 °F 10.9 °F 12% 29.60 in 10.0 mi NW 12.7 mph - N/A   Clear
2:53 AM 64.9 °F 14.0 °F 14% 29.59 in 10.0 mi WNW 11.5 mph - N/A   Clear
3:53 AM 57.9 °F 10.9 °F 16% 29.61 in 10.0 mi SSW 11.5 mph - N/A   Clear
4:53 AM 57.0 °F 12.0 °F 17% 29.64 in 10.0 mi SW 12.7 mph - N/A   Clear
5:53 AM 61.0 °F 12.0 °F 15% 29.64 in 10.0 mi West 9.2 mph - N/A   Clear
6:53 AM 55.9 °F 12.0 °F 18% 29.68 in 10.0 mi WSW 4.6 mph - N/A   Clear
7:53 AM 63.0 °F 14.0 °F 15% 29.69 in 10.0 mi SSW 8.1 mph - N/A   Clear
8:53 AM 72.0 °F 16.0 °F 12% 29.68 in 10.0 mi WSW 11.5 mph - N/A   Clear
9:53 AM 80.1 °F 16.0 °F 9% 29.67 in 10.0 mi West 11.5 mph - N/A   Clear
10:53 AM 84.0 °F 12.9 °F 7% 29.67 in 10.0 mi WNW 12.7 mph 21.9 mph N/A   Clear
11:53 AM 87.1 °F 8.1 °F 5% 29.65 in 10.0 mi West 17.3 mph 28.8 mph N/A   Clear
12:53 PM 89.1 °F 8.1 °F 5% 29.64 in 10.0 mi West 13.8 mph 29.9 mph N/A   Clear
1:53 PM 89.1 °F 7.0 °F 5% 29.62 in 10.0 mi West 20.7 mph 27.6 mph N/A   Clear
2:53 PM 89.1 °F 6.1 °F 4% 29.61 in 10.0 mi WSW 17.3 mph 29.9 mph N/A   Clear
3:53 PM 90.0 °F 5.0 °F 4% 29.61 in 10.0 mi West 18.4 mph 27.6 mph N/A   Clear
4:53 PM 88.0 °F 9.0 °F 5% 29.60 in 10.0 mi WNW 18.4 mph 26.5 mph N/A   Clear
5:53 PM 87.1 °F 8.1 °F 5% 29.59 in 10.0 mi West 13.8 mph 26.5 mph N/A   Clear
6:53 PM 84.9 °F 9.0 °F 6% 29.60 in 10.0 mi WNW 17.3 mph - N/A   Clear
7:53 PM 82.0 °F 8.1 °F 6% 29.60 in 10.0 mi WNW 12.7 mph 25.3 mph N/A   Clear
8:53 PM 75.9 °F 10.9 °F 8% 29.61 in 10.0 mi WNW 10.4 mph - N/A   Clear
9:53 PM 73.9 °F 10.9 °F 9% 29.62 in 10.0 mi West 11.5 mph - N/A   Clear
10:53 PM 69.1 °F 10.9 °F 11% 29.63 in 10.0 mi West 9.2 mph - N/A   Clear
11:53 PM 66.9 °F 12.9 °F 12% 29.64 in 10.0 mi West 9.2 mph - N/A   Clear